This is the latest recevied weather packets stored in our database for station/object KD6VPH. If no packets are shown the sender has not sent any weather packets the latest 10 day(s).
| Time | Temp. | Humidity | Pressure | Rain* | Wind** | Luminosity | Snow |
|---|---|---|---|---|---|---|---|
| 1777121746 | 0° C | 86% | 1011.9 hPa | 0 mm | - | 0 W/m² | - |
| 1777120584 | 0° C | 86% | 1011.9 hPa | 0 mm | - | 0 W/m² | - |
| 1777120546 | 0° C | 86% | 1011.9 hPa | 0 mm | - | 0 W/m² | - |
| 1777119946 | 0.56° C | 85% | 1012 hPa | 0 mm | - | 0 W/m² | - |
| 1777118746 | 0.56° C | 85% | 1012.1 hPa | 0 mm | - | 0 W/m² | - |
| 1777118146 | 0.56° C | 85% | 1012.2 hPa | 0 mm | - | 0 W/m² | - |
| 1777117546 | 0.56° C | 85% | 1012.1 hPa | 0 mm | - | 0 W/m² | - |
| 1777116346 | 1.11° C | 84% | 1012.2 hPa | 0 mm | - | 0 W/m² | - |
| 1777115747 | 1.11° C | 84% | 1012.1 hPa | 0 mm | - | 0 W/m² | - |
| 1777115146 | 1.11° C | 84% | 1012.3 hPa | 0 mm | - | 0 W/m² | - |
| 1777114547 | 1.67° C | 84% | 1012.3 hPa | 0 mm | - | 0 W/m² | - |
| 1777113947 | 1.67° C | 83% | 1012.3 hPa | 0 mm | - | 0 W/m² | - |
| 1777112747 | 1.67° C | 83% | 1012.5 hPa | 0 mm | - | 0 W/m² | - |
| 1777112147 | 1.67° C | 83% | 1012.6 hPa | 0 mm | - | 0 W/m² | - |
| 1777111547 | 2.22° C | 82% | 1012.6 hPa | 0 mm | - | 0 W/m² | - |
| 1777111055 | 2.22° C | 82% | 1012.6 hPa | 0 mm | - | 0 W/m² | - |
| 1777110947 | 2.22° C | 82% | 1012.6 hPa | 0 mm | - | 0 W/m² | - |
| 1777109747 | 2.78° C | 82% | 1012.5 hPa | 0 mm | - | 0 W/m² | - |
| 1777109147 | 2.78° C | 82% | 1012.6 hPa | 0 mm | - | 0 W/m² | - |
| 1777108547 | 2.78° C | 82% | 1012.6 hPa | 0 mm | - | 0 W/m² | - |
| 1777107947 | 2.78° C | 81% | 1012.6 hPa | 0 mm | - | 0 W/m² | - |
| 1777107347 | 2.78° C | 81% | 1012.6 hPa | 0 mm | - | 0 W/m² | - |
| 1777106147 | 3.33° C | 80% | 1012.7 hPa | 0 mm | - | 0 W/m² | - |
| 1777105547 | 3.33° C | 79% | 1012.7 hPa | 0 mm | - | 0 W/m² | - |
| 1777104347 | 3.89° C | 78% | 1012.8 hPa | 0 mm | - | 0 W/m² | - |
* Rain latest hour (hover to see other rain measurements)
** Current wind speed in m/s (hover to see current wind gust speed)